Location: Zagreb
(45.8000°N, 16.0000°E)
Time: 09:52:22
(UTC+02:00)

Explorer 7 - Pass Details

Date: 19 July 2024
Orbit: 446 x 574 km, 50.3° (Epoch: 18 May)

Event Time Altitude Azimuth Distance (km) Brightness Sun altitude
Rises 09:12:29 0° 286° (WNW) 2,756 9.9 37.3°
Reaches altitude 10° 09:15:31 10° 264° (W) 1,820 9.1 37.8°
Drops below altitude 10° 09:20:24 10° 190° (S) 1,751 9.5 38.7°
Enters shadow 10:02:15 -78° 94° (E) 12,969 13.4 45.7°
Exits shadow 10:35:11 -36° 320° (NW) 8,403 12.2 51.0°
